Amritsar, India

3:24 AM IST on May 27, 2017 (GMT +0530)
Amritsar

Weather History for VIAR - March, 2013

Change the Weather History Date:

Saturday, March 9, 2013

  Actual Average Record
Temperature  
Mean Temperature 68 °F -  
Max Temperature 82 °F 73 °F 88 °F (2017)
Min Temperature 54 °F 52 °F 41 °F (2015)
Cooling Degree Days 3    
Growing Degree Days 18 (Base 50)    
Moisture  
Dew Point 63 °F    
Average Humidity 78    
Maximum Humidity 100    
Minimum Humidity 49    
Precipitation  
Precipitation 0.00 in - - ()
Sea Level Pressure  
Sea Level Pressure 29.83 in    
Wind  
Wind Speed 2 mph ()    
Max Wind Speed 8 mph    
Max Gust Speed -    
Visibility 1.4 miles    
Events Fog    
Averages and records for this station are not official NWS values.
T = Trace of Precipitation, MM = Missing Value Source: Averaged Metar Reports

Daily Weather History Graph

Daily Weather History Graph

Search for Another Location

Airport or City:

Trip Planner

Search our weather history database for the weather conditions in past years. The results will help you decide how hot, cold, wet, or windy it might be!

Date:

Astronomy

Mar. 09, 2013 Rise Set
Actual Time 6:48 AM IST 6:34 PM IST
Civil Twilight 6:23 AM IST 6:58 PM IST
Nautical Twilight 5:55 AM IST 7:26 PM IST
Astronomical Twilight 5:27 AM IST 7:55 PM IST
Moon 4:46 AM IST (3/9) 4:12 PM IST (3/9)
Length of Visible Light 12h 34m
Length of Day
11h 46m
Waning Crescent, 8% of the Moon is Illuminated
Mar 9
Waning Crescent
Mar 12
New
Mar 19
First Quarter
Mar 27
Full
Apr 3
Last Quarter

Hourly Weather History & Observations

Time (IST) Temp. Heat Index Dew Point Humidity Pressure Visibility Wind Dir Wind Speed Gust Speed Precip Events Conditions
12:00 AM 64.4 °F - 64.4 °F 100% 29.95 in 0.4 mi Calm Calm - N/A Fog Fog
12:30 AM 62.6 °F - 60.8 °F 94% 29.95 in 0.4 mi Variable 2.3 mph - N/A Fog Fog
4:00 AM 60.8 °F - 57.2 °F 88% 29.89 in 0.4 mi Variable 1.2 mph - N/A Fog Fog
5:00 AM 59.0 °F - 59.0 °F 100% 29.89 in 0.4 mi Calm Calm - N/A Fog Fog
7:30 AM 55.4 °F - 55.4 °F 100% 29.92 in 0.0 mi Calm Calm - N/A Fog Fog
8:00 AM 57.2 °F - 55.4 °F 94% 29.92 in 0.0 mi Calm Calm - N/A Fog Fog
8:30 AM 61 °F - 61 °F 100% 29.92 in 0 mi Calm Calm - - Fog Partial Fog
8:30 AM 60.8 °F - 60.8 °F 100% 29.92 in 0.4 mi Calm Calm - N/A Fog Fog
9:00 AM 64.4 °F - 64.4 °F 100% 29.92 in 0.6 mi Calm Calm - N/A   Scattered Clouds
9:30 AM 69.8 °F - 68.0 °F 94% 29.92 in 0.7 mi Calm Calm - N/A   Mostly Cloudy
10:00 AM 71.6 °F - 66.2 °F 83% 29.92 in 1.2 mi SSE 6.9 mph - N/A   Mostly Cloudy
10:30 AM 73.4 °F - 66.2 °F 78% 29.92 in 1.9 mi SE 4.6 mph - N/A   Scattered Clouds
11:00 AM 77.0 °F - 66.2 °F 69% 29.92 in 2.5 mi SSE 6.9 mph - N/A   Scattered Clouds
11:30 AM 78 °F - 65 °F 57% 29.88 in 2 mi SE 6.9 mph - -   Haze
11:30 AM 78.8 °F - 66.2 °F 65% 29.92 in 2.5 mi SSE 6.9 mph - N/A   Scattered Clouds
12:00 PM 80.6 °F 82.7 °F 66.2 °F 61% 29.89 in 3.1 mi SSE 4.6 mph - N/A   Haze
12:30 PM 80.6 °F 82.7 °F 66.2 °F 61% 29.89 in 3.1 mi SSE 5.8 mph - N/A   Haze
1:00 PM 80.6 °F 82.7 °F 66.2 °F 61% 29.86 in 3.1 mi SSE 5.8 mph - N/A   Haze
1:30 PM 82.4 °F 83.9 °F 64.4 °F 54% 29.86 in 3.1 mi East 5.8 mph - N/A   Haze
2:00 PM 80.6 °F 82.3 °F 64.4 °F 58% 29.83 in 3.1 mi East 6.9 mph - N/A   Haze
2:30 PM 81 °F - 65 °F 49% 29.78 in 2 mi ENE 6.9 mph - -   Haze
2:30 PM 80.6 °F 82.3 °F 64.4 °F 58% 29.80 in 3.1 mi ENE 6.9 mph - N/A   Haze
3:00 PM 80.6 °F 82.3 °F 64.4 °F 58% 29.80 in 3.1 mi East 8.1 mph - N/A   Haze
4:00 PM 78.8 °F - 64.4 °F 61% 29.77 in 1.6 mi East 6.9 mph - N/A   Haze
4:30 PM 77.0 °F - 64.4 °F 65% 29.77 in 1.6 mi ENE 6.9 mph - N/A   Haze
5:00 PM 78.8 °F - 64.4 °F 61% 29.74 in 1.6 mi East 8.1 mph - N/A   Haze
5:30 PM 76 °F - 64 °F 59% 29.73 in 1 mi Calm Calm - -   Haze
5:30 PM 77.0 °F - 64.4 °F 65% 29.74 in 1.6 mi Calm Calm - N/A   Haze
6:00 PM 75.2 °F - 62.6 °F 65% 29.74 in 1.6 mi Calm Calm - N/A   Haze
6:30 PM 71.6 °F - 62.6 °F 73% 29.74 in 1.6 mi Calm Calm - N/A   Haze
7:00 PM 73.4 °F - 62.6 °F 69% 29.74 in 1.6 mi Calm Calm - N/A   Haze
7:30 PM 69.8 °F - 62.6 °F 78% 29.74 in 0.9 mi Calm Calm - N/A   Haze
8:00 PM 68.0 °F - 62.6 °F 83% 29.74 in 0.7 mi Calm Calm - N/A   Scattered Clouds
8:30 PM 67 °F - 63 °F 82% 29.73 in 1 mi Calm Calm - -   Mist
8:30 PM 66.2 °F - 62.6 °F 88% 29.74 in 0.7 mi Calm Calm - N/A   Scattered Clouds
9:00 PM 66.2 °F - 62.6 °F 88% 29.74 in 0.7 mi Variable 2.3 mph - N/A   Scattered Clouds
9:30 PM 66.2 °F - 64.4 °F 94% 29.77 in 0.7 mi Calm Calm - N/A   Scattered Clouds
10:00 PM 64.4 °F - 64.4 °F 100% 29.77 in 0.6 mi Calm Calm - N/A   Scattered Clouds
11:00 PM 62.6 °F - 62.6 °F 100% 29.77 in 0.5 mi Calm Calm - N/A Fog Fog
11:30 PM 62.6 °F - 62.6 °F 100% 29.77 in 0.4 mi Calm Calm - N/A Fog Fog